Temperature
12 12 12 12 13 13 13 13 14 14 15 15 15 15 15 15 16 16 16 16 16 17 17 17 17 17 17 17 17 16 16 16 16 16 16 16 16 16
12 12 12 12 12 12 13 13 13 13 14 14 14 14 15 15 15 15 16 16 16 16 16 17 17 16 16 17 17 16 16 16 16 16 16 16 16 16
12 12 12 12 12 12 12 12 13 13 13 14 14 14 14 14 15 15 15 15 16 16 16 16 16 16 16 16 16 16 16 16 16 16 16 16 16 16
12 12 12 12 12 12 12 12 12 13 13 13 13 13 14 14 14 14 15 15 15 16 16 16 16 16 16 16 16 16 16 16 16 16 16 16 16 16
12 12 12 12 12 12 12 12 12 12 12 12 13 13 13 13 14 14 14 15 15 15 16 16 16 16 16 16 16 16 16 16 16 16 16 16 16 15
12 12 11 11 11 12 12 12 12 12 12 12 12 13 13 13 13 13 14 14 14 14 15 15 16 16 16 16 16 16 16 16 16 16 16 16 15 15
12 12 11 12 12 12 12 12 12 12 12 12 12 12 13 13 13 13 13 14 14 14 14 14 15 15 15 16 16 16 16 16 16 16 16 15 15 15
12 12 12 12 12 12 12 12 12 12 12 12 12 12 12 12 13 13 13 13 13 14 14 14 14 15 15 15 15 16 16 15 15 15 15 15 15 15
12 12 12 12 12 12 12 12 12 12 12 12 12 12 12 12 12 12 12 13 13 13 13 14 14 14 14 14 15 15 15 15 15 15 15 15 15 15
12 12 12 12 12 12 12 12 12 12 12 12 12 12 12 12 12 12 12 12 13 13 13 13 13 14 14 14 14 15 15 15 15 15 15 15 15 15
12 12 12 12 12 12 12 12 12 12 12 12 12 12 12 12 12 12 12 12 12 12 13 12 13 13 13 14 14 14 14 15 15 14 14 14 14 14
11 11 12 12 12 12 12 11 11 11 11 11 12 12 12 12 12 12 12 12 12 12 12 12 12 13 13 13 13 13 14 14 14 14 14 14 14 13
11 11 11 12 12 12 12 11 11 11 11 11 11 11 11 11 11 11 11 11 11 12 12 12 12 12 12 12 13 13 13 13 13 13 13 13 13 13
11 11 11 11 11 11 11 11 11 11 11 11 11 11 11 11 11 11 11 11 11 11 11 11 11 12 12 12 12 12 12 13 13 13 13 13 13 13
11 11 11 11 11 11 11 11 11 11 10 11 11 11 11 11 11 11 11 11 11 11 11 11 11 11 11 11 11 12 12 12 12 12 12 12 12 13
10 10 10 10 10 10 10 10 10 10 10 10 10 10 10 10 11 11 11 11 11 11 11 11 11 11 11 11 11 11 11 11 12 12 12 12 12 12
9 9 9 9 9 9 9 9 9 9 9 9 9 9 9 10 10 10 10 10 10 10 10 10 11 11 11 11 11 11 11 11 11 11 11 12 12 12
9 8 8 8 8 8 8 8 8 8 8 8 8 8 8 8 9 9 9 9 9 9 9 10 10 10 10 10 11 11 11 11 11 11 11 11 11 11
8 7 7 7 7 7 7 7 7 7 7 7 7 7 7 7 7 8 8 8 8 8 9 9 9 9 9 9 10 11 10 11 11 11 11 11 11 11
7 7 6 6 6 6 6 6 6 6 6 6 6 6 6 6 6 6 7 7 7 7 7 8 8 8 8 8 9 10 10 10 10 10 10 10 11 11
6 6 6 6 5 5 5 5 5 5 5 5 5 5 5 5 5 5 5 5 6 6 6 7 7 7 7 8 8 9 9 10 10 10 10 10 10 10
5 5 5 5 5 5 5 4 4 4 4 4 4 4 4 4 4 4 4 4 5 5 5 6 6 6 6 7 7 8 8 9 9 9 9 9 9 10
4 4 4 4 4 4 4 4 3 3 3 3 3 3 3 3 3 3 3 3 4 4 4 4 5 5 5 6 6 7 7 8 8 8 9 9 9 9
Wind_Speed
4 4 4 3 4 4 4 4 4 4 4 3 2 3 3 4 4 6 8 11 13 14 15 16 17 18 19 20 21 21 21 21 20 20 20 20 19 19
3 5 4 4 3 3 4 4 4 5 4 3 3 3 3 4 4 6 7 7 11 13 14 15 17 18 19 20 20 21 21 21 20 20 21 20 20 20
4 4 4 4 4 4 4 4 4 4 5 5 4 4 5 5 4 6 7 7 9 12 13 14 15 16 18 19 20 21 21 21 21 21 21 21 21 21
4 4 4 3 4 4 4 4 4 5 5 6 5 4 5 5 5 5 5 7 7 10 13 13 14 15 16 18 19 20 21 22 22 22 22 22 22 22
4 4 4 4 4 4 4 5 4 4 4 5 5 4 4 4 4 5 6 5 7 8 11 14 15 16 16 17 18 19 20 21 22 23 23 22 23 23
4 4 4 4 5 4 4 5 4 4 5 5 5 5 5 5 5 4 5 5 6 6 7 9 12 15 17 17 18 19 19 20 21 22 22 22 23 23
4 4 4 3 5 5 5 5 5 5 5 5 5 5 5 5 5 5 5 5 6 6 6 7 7 9 11 15 18 19 19 20 21 21 22 22 22 23
4 4 3 4 4 5 6 7 7 7 7 6 6 6 7 6 5 5 5 6 6 4 6 7 6 7 8 10 13 16 18 19 20 20 21 22 22 23
5 4 3 3 4 5 4 7 7 8 9 9 8 8 7 7 6 7 7 7 7 5 5 7 7 8 8 9 13 16 18 19 19 20 20 21 21 22
4 5 4 4 3 5 5 5 5 5 5 7 8 8 7 7 7 8 8 7 8 7 6 7 7 8 8 8 12 16 18 18 18 19 19 20 20 21
4 4 4 4 2 4 6 6 6 5 4 6 7 8 8 8 7 6 7 7 7 7 6 6 7 7 7 8 8 14 16 17 17 17 18 18 19 19
3 3 0 3 5 5 6 5 6 6 5 5 6 7 7 7 8 8 7 7 7 6 5 5 6 5 6 6 6 7 9 13 15 16 17 17 17 14
3 2 1 2 4 4 6 5 5 6 6 5 5 5 4 4 5 5 6 7 8 7 5 5 6 6 6 6 6 6 6 7 8 10 15 18 19 16
3 3 3 4 3 3 3 5 5 5 4 4 4 4 4 4 4 5 6 7 8 10 9 8 7 7 8 8 7 6 7 7 7 8 8 11 16 20
3 5 6 5 3 1 3 4 4 3 3 3 4 4 5 5 6 5 6 7 8 9 9 10 9 9 9 9 9 8 7 7 8 8 8 9 9 9
2 2 1 1 2 3 2 3 3 4 4 4 5 5 5 5 5 5 6 6 6 7 7 8 9 10 10 11 9 9 9 7 7 8 9 9 9 10
4 2 3 3 4 4 4 4 4 4 4 5 5 5 5 6 6 6 6 6 6 7 7 6 7 7 9 10 10 10 10 9 9 9 9 10 10 11
3 3 3 4 4 4 4 5 5 5 5 5 6 6 6 6 7 6 6 6 7 7 7 7 6 6 6 7 10 11 10 10 9 9 9 10 11 11
2 3 3 4 4 4 5 5 5 5 5 5 5 6 6 6 7 7 7 7 7 8 8 7 6 6 8 9 7 10 10 10 9 9 9 10 11 11
3 3 4 4 4 5 5 5 6 6 6 6 6 6 7 7 7 7 7 8 9 9 9 8 7 7 8 9 9 9 12 12 10 10 10 9 9 9
3 3 4 4 5 5 5 6 6 6 7 7 7 7 7 7 8 8 8 10 9 9 10 9 9 10 10 8 9 9 9 11 12 11 10 9 8 8
3 4 4 5 5 5 6 6 6 7 7 7 7 8 8 8 9 10 10 10 9 9 11 10 11 10 9 9 11 12 12 10 11 13 14 11 8 8
4 4 4 5 5 6 6 7 8 7 7 8 8 8 9 9 9 9 10 10 10 11 11 11 10 10 10 11 11 12 14 13 9 8 10 12 15 14
Wind_Direction
285 280 278 283 282 283 277 268 266 266 258 248 239 223 229 233 212 229 233 207 209 217 220 221 221 222 222 222 221 220 219 219 219 216 215 215 215 213
283 279 277 278 284 277 274 269 260 264 266 262 260 260 256 255 219 240 242 210 212 217 221 222 223 223 223 223 222 221 220 219 219 217 216 216 215 214
281 274 270 277 275 269 261 261 259 256 262 268 263 265 257 257 247 246 244 235 223 210 218 222 223 224 225 224 221 220 220 219 219 219 217 216 215 214
295 284 276 270 273 275 268 259 256 256 264 274 274 270 266 261 260 256 250 241 240 209 214 223 225 226 227 225 222 221 220 219 219 218 217 217 217 216
294 285 282 278 276 277 273 267 257 253 259 264 271 272 273 266 263 258 253 250 250 227 215 222 225 228 228 228 225 222 221 220 219 217 217 217 217 217
289 284 281 277 278 282 276 273 264 257 254 256 264 265 267 268 260 260 260 247 247 243 234 229 225 225 228 229 226 223 221 221 219 218 218 218 218 218
287 281 280 291 310 297 290 285 272 261 255 255 258 261 262 262 258 259 262 263 254 239 240 234 227 229 226 226 226 225 222 221 220 219 218 218 218 219
293 294 278 248 250 252 268 283 284 272 267 262 259 260 265 264 263 258 261 264 263 238 246 249 237 240 236 232 220 217 220 221 221 220 220 219 220 220
291 294 297 290 276 275 249 244 254 251 259 268 269 269 274 274 268 263 259 262 266 270 265 264 250 247 243 235 212 213 218 220 221 220 221 222 223 223
277 285 288 292 295 303 291 282 284 277 265 260 267 275 280 282 272 267 271 272 274 266 253 261 261 256 254 242 214 211 216 218 220 222 222 223 223 224
269 280 291 292 7 309 286 284 286 285 249 243 267 278 290 283 274 268 260 255 265 262 246 251 263 266 262 253 229 209 214 218 220 222 224 224 223 224
268 268 271 312 343 313 284 286 288 297 300 282 254 247 258 252 236 249 258 259 265 268 252 246 263 270 269 253 242 228 222 220 219 222 225 225 221 224
294 296 4 36 330 318 296 295 312 309 294 292 290 289 286 283 275 267 264 261 263 262 260 255 263 260 259 269 265 251 244 240 229 228 225 224 221 219
320 330 11 26 343 331 322 352 336 305 289 293 298 302 303 302 298 290 280 271 265 267 269 263 262 260 261 263 267 261 252 246 240 239 237 224 221 221
360 25 14 0 325 326 36 2 331 316 315 310 307 307 309 308 308 302 292 284 278 271 264 260 257 256 255 257 262 261 261 257 247 243 239 236 234 228
10 56 110 31 1 17 17 12 4 358 337 321 316 314 313 310 308 307 302 300 290 283 274 269 265 260 257 256 256 259 256 252 247 244 243 243 239 234
346 6 17 19 21 19 14 13 4 357 348 337 327 323 321 318 315 315 308 302 294 293 295 289 279 272 263 260 259 256 255 253 250 246 246 248 245 238
340 28 24 19 13 7 1 357 357 356 349 341 337 332 327 323 320 318 312 306 301 300 300 299 295 288 280 265 243 255 258 257 254 246 243 249 252 246
13 27 18 9 0 354 349 345 343 343 339 333 331 331 329 325 322 319 317 312 306 303 301 301 296 287 284 283 267 235 255 264 260 253 247 247 253 252
20 13 4 353 345 342 339 336 334 333 331 330 328 327 326 323 322 320 317 317 313 308 304 302 298 294 286 284 283 276 246 254 260 259 256 253 256 260
5 356 347 339 335 333 332 328 325 324 324 323 321 321 319 317 315 315 314 313 309 306 305 302 304 303 294 288 282 278 273 251 253 260 261 258 259 255
343 338 335 331 329 328 325 322 319 319 321 320 319 317 315 311 309 308 306 306 304 302 301 301 303 302 295 287 285 286 287 283 263 253 251 245 246 247
328 326 322 321 321 319 317 315 315 314 315 313 312 311 309 306 304 302 302 301 301 301 301 301 302 298 291 288 287 287 286 287 284 272 261 247 241 249
Height
1488 1488 1488 1488 1488 1488 1488 1489 1490 1490 1490 1491 1491 1492 1493 1494 1495 1497 1499 1501 1504 1506 1509 1511 1513 1516 1518 1521 1523 1525 1527 1529 1532 1533 1535 1537 1538 1540
1486 1486 1486 1486 1486 1486 1486 1486 1487 1488 1488 1488 1489 1489 1490 1491 1492 1493 1495 1497 1499 1502 1504 1506 1508 1511 1513 1516 1518 1520 1523 1525 1527 1529 1530 1532 1534 1535
1486 1485 1485 1484 1484 1484 1484 1484 1485 1485 1486 1486 1486 1486 1487 1488 1489 1490 1491 1493 1495 1497 1499 1501 1503 1505 1508 1510 1513 1515 1517 1519 1521 1523 1525 1527 1529 1530
1484 1484 1483 1483 1482 1482 1482 1482 1482 1482 1483 1483 1484 1484 1484 1485 1485 1486 1487 1488 1490 1491 1493 1495 1497 1500 1502 1504 1506 1509 1511 1513 1515 1518 1520 1521 1523 1525
1483 1482 1482 1481 1481 1480 1480 1480 1480 1480 1480 1480 1480 1481 1481 1481 1482 1482 1483 1484 1485 1487 1488 1490 1491 1493 1495 1498 1500 1502 1504 1506 1509 1511 1513 1515 1517 1519
1482 1481 1480 1479 1479 1479 1478 1478 1477 1477 1477 1477 1477 1478 1478 1478 1478 1478 1479 1480 1481 1482 1483 1484 1485 1487 1489 1491 1493 1495 1497 1499 1501 1504 1506 1508 1510 1512
1481 1480 1478 1477 1477 1476 1476 1476 1475 1475 1475 1475 1475 1475 1475 1474 1475 1475 1476 1476 1477 1477 1478 1479 1480 1481 1482 1484 1486 1488 1490 1492 1494 1496 1498 1500 1503 1505
1480 1479 1477 1476 1475 1474 1474 1473 1473 1473 1473 1473 1472 1472 1472 1472 1471 1471 1472 1472 1473 1474 1474 1474 1474 1475 1476 1477 1478 1481 1483 1484 1486 1489 1490 1492 1494 1497
1478 1477 1476 1475 1474 1473 1472 1471 1471 1470 1470 1469 1469 1469 1469 1468 1468 1468 1468 1468 1468 1469 1469 1468 1469 1469 1470 1471 1472 1473 1475 1477 1479 1481 1482 1484 1486 1488
1477 1476 1475 1474 1472 1471 1471 1470 1469 1468 1467 1466 1466 1465 1465 1465 1464 1464 1464 1464 1464 1464 1464 1464 1464 1464 1465 1465 1466 1467 1468 1469 1471 1473 1474 1476 1478 1480
1475 1474 1473 1472 1470 1469 1468 1467 1466 1465 1464 1463 1462 1462 1461 1461 1461 1460 1460 1460 1459 1459 1460 1460 1459 1459 1459 1459 1460 1460 1461 1462 1464 1465 1466 1468 1469 1471
1473 1472 1470 1469 1468 1467 1466 1465 1464 1463 1462 1461 1460 1459 1458 1458 1457 1457 1457 1456 1456 1456 1455 1455 1455 1455 1454 1454 1454 1454 1455 1455 1456 1457 1459 1460 1462 1463
1471 1470 1468 1467 1466 1465 1464 1463 1462 1460 1459 1458 1457 1456 1456 1455 1454 1453 1453 1452 1452 1451 1451 1451 1450 1450 1450 1449 1449 1449 1449 1449 1450 1450 1451 1452 1453 1454
1468 1467 1466 1464 1464 1462 1461 1460 1459 1458 1457 1456 1455 1454 1453 1452 1450 1449 1449 1448 1447 1447 1446 1446 1445 1445 1444 1443 1443 1443 1443 1443 1443 1443 1444 1444 1445 1446
1466 1465 1463 1462 1461 1460 1459 1458 1457 1456 1455 1454 1453 1451 1450 1449 1447 1446 1445 1444 1442 1442 1441 1440 1440 1439 1439 1438 1437 1437 1437 1436 1437 1437 1437 1437 1438 1438
1464 1463 1461 1460 1459 1458 1457 1456 1455 1454 1452 1451 1450 1449 1447 1445 1444 1442 1441 1439 1438 1437 1436 1435 1434 1433 1432 1432 1432 1431 1431 1431 1430 1430 1430 1430 1430 1430
1462 1462 1461 1459 1458 1457 1455 1454 1453 1451 1450 1449 1447 1446 1444 1442 1441 1439 1437 1436 1434 1433 1431 1430 1429 1428 1427 1426 1425 1424 1424 1424 1424 1424 1423 1422 1422 1422
1461 1461 1459 1458 1457 1455 1454 1452 1451 1449 1448 1446 1444 1443 1441 1439 1437 1436 1434 1433 1431 1429 1427 1425 1423 1422 1420 1419 1419 1418 1418 1417 1417 1417 1416 1415 1414 1415
1460 1459 1458 1457 1455 1454 1452 1451 1449 1448 1446 1444 1442 1440 1438 1436 1434 1432 1431 1429 1427 1425 1423 1421 1420 1418 1416 1413 1412 1413 1412 1411 1410 1409 1408 1408 1407 1407
1459 1458 1457 1455 1454 1452 1451 1449 1447 1445 1443 1442 1440 1438 1436 1433 1431 1429 1427 1425 1423 1420 1418 1417 1416 1414 1412 1409 1407 1405 1406 1404 1403 1402 1401 1400 1400 1399
1457 1456 1455 1453 1452 1450 1448 1446 1444 1443 1441 1439 1436 1434 1432 1430 1428 1426 1423 1421 1419 1416 1414 1412 1410 1409 1406 1404 1401 1398 1398 1398 1397 1396 1395 1394 1392 1391
1455 1453 1452 1450 1449 1447 1445 1443 1441 1439 1437 1435 1433 1431 1428 1426 1424 1422 1419 1417 1414 1412 1409 1407 1405 1403 1401 1399 1395 1393 1391 1389 1388 1388 1387 1386 1385 1383
1452 1450 1449 1447 1445 1443 1441 1439 1437 1435 1433 1431 1429 1426 1424 1422 1419 1417 1415 1412 1410 1407 1404 1401 1399 1397 1395 1393 1390 1387 1384 1382 1380 1379 1378 1377 1377 1377